1484388000.95,29532,6.44,71152.5,-14.73,-16.03,-15.81,0,*67
1484388002.19,29533,6.5,71154.3,-14.75,-15.95,-15.75,0,*67
1484388003.4,29534,6.44,71150.0,-14.73,-15.95,-15.67,0,*65
1484388004.63,29535,6.5,71154.3,-14.73,-15.89,-15.67,0,*69
1484388005.88,29536,6.5,71160.8,-14.73,-15.89,-15.75,0,*69
1484388007.12,29537,6.44,71150.3,-14.73,-15.89,-15.75,0,*68
1484388008.36,29538,6.44,71152.3,-14.73,-15.95,-15.89,0,*69
1484388009.59,29539,6.5,71156.0,-14.75,-15.95,-15.67,0,*6E
1484388010.81,29540,6.5,71148.5,-14.73,-15.95,-15.75,0,*65
1484388012.07,29541,6.5,71146.3,-14.75,-16.03,-15.81,0,*65
1484388013.31,29542,6.44,71146.8,-14.73,-16.03,-15.89,0,*68
1484388014.58,29543,6.5,71138.3,-14.73,-16.09,-15.89,0,*63
1484388015.82,29544,6.5,71138.5,-14.73,-15.95,-15.81,0,*6A
1484388017.06,29545,6.5,71146.3,-14.73,-15.95,-15.89,0,*63
1484388018.31,29546,6.5,71144.5,-14.75,-15.81,-15.67,0,*63
1484388019.55,29547,6.5,71134.5,-14.71,-15.75,-15.63,0,*69
1484388020.81,29548,6.5,71146.0,-14.75,-15.81,-15.75,0,*6E
1484388022.08,29549,6.5,71156.0,-14.73,-15.89,-15.81,0,*6A
1484388023.32,29550,6.5,71150.5,-14.73,-15.89,-15.75,0,*69
1484388024.56,29551,6.5,71138.8,-14.75,-15.95,-15.95,0,*6D
1484388025.85,29552,6.44,71112.0,-14.75,-16.23,-16.17,0,*69
1484388027.13,29553,6.44,71132.3,-14.75,-16.31,-16.17,0,*6B
1484388028.39,29554,6.5,71136.8,-14.75,-16.23,-16.03,0,*6A
1484388029.65,29555,6.5,71140.3,-14.75,-16.09,-16.03,0,*63
1484388030.94,29556,6.44,71142.3,-14.75,-15.81,-15.81,0,*6A
1484388032.2,29557,6.44,71140.0,-14.75,-15.89,-15.75,0,*68
1484388033.44,29558,6.5,71140.0,-14.75,-16.03,-15.75,0,*66
1484388034.7,29559,6.5,71144.3,-14.75,-16.03,-15.89,0,*64
1484388035.94,29560,6.5,71134.0,-14.73,-15.81,-15.75,0,*62
1484388037.2,29561,6.5,71134.0,-14.75,-15.95,-15.81,0,*6B
1484388038.46,29562,6.44,71144.0,-14.75,-15.95,-15.89,0,*60
1484388039.7,29563,6.44,71142.8,-14.75,-16.03,-15.95,0,*60
1484388040.96,29564,6.44,71148.0,-14.75,-15.95,-15.89,0,*66
1484388042.25,29565,6.5,71152.0,-14.75,-15.89,-15.81,0,*62
1484388043.51,29566,6.5,71154.3,-14.75,-15.95,-15.81,0,*6C
1484388044.77,29567,6.5,71152.8,-14.75,-16.03,-15.89,0,*69
1484388046.03,29568,6.5,71148.8,-14.79,-16.13,-15.95,0,*66
1484388047.3,29569,6.5,71152.3,-14.75,-16.09,-15.95,0,*60
1484388048.53,29570,6.5,71156.0,-14.75,-16.03,-16.03,0,*6E
1484388049.76,29571,6.5,71152.8,-14.79,-15.99,-15.99,0,*63
1484388050.99,29572,6.5,71166.3,-14.75,-16.03,-16.03,0,*6C
1484388052.28,29573,6.5,71172.0,-14.75,-16.23,-16.17,0,*6A
1484388053.56,29574,6.44,71172.8,-14.75,-16.23,-16.17,0,*6D
1484388054.8,29575,6.44,71174.3,-14.75,-16.03,-15.95,0,*67
1484388056.09,29576,6.44,71140.3,-14.75,-15.81,-15.81,0,*68
1484388057.37,29577,6.44,71126.0,-14.79,-15.85,-15.85,0,*65
1484388058.6,29578,6.5,71130.5,-14.75,-15.67,-15.67,0,*66
1484388059.84,29579,6.5,71140.5,-14.79,-15.63,-15.49,0,*63
1484388061.11,29580,6.5,71134.8,-14.79,-15.53,-15.39,0,*61
1484388062.37,29581,6.5,71154.5,-14.75,-15.57,-15.49,0,*6F
1484388063.61,29582,6.44,71158.5,-14.75,-15.75,-15.67,0,*60
1484388064.87,29583,6.5,71148.0,-14.79,-15.95,-15.81,0,*6B
1484388066.11,29584,6.5,71140.5,-14.79,-15.71,-15.71,0,*69
1484388067.35,29585,6.44,71132.8,-14.79,-15.63,-15.49,0,*60
1484388068.63,29586,6.44,71118.0,-14.75,-15.43,-15.21,0,*63
1484388069.87,29587,6.5,71124.5,-14.75,-15.29,-15.15,0,*69
1484388071.13,29588,6.5,71132.5,-14.75,-15.29,-15.21,0,*61
1484388072.37,29589,6.5,71134.8,-14.75,-15.29,-15.29,0,*68
1484388073.64,29590,6.5,71132.8,-14.75,-15.35,-15.29,0,*6D
1484388074.88,29591,6.44,71130.3,-14.75,-15.63,-15.49,0,*69
1484388076.12,29592,6.44,71134.0,-14.75,-15.63,-15.49,0,*6A
1484388077.34,29593,6.5,71136.5,-14.73,-15.63,-15.49,0,*6D
1484388078.56,29594,6.5,71136.0,-14.73,-15.63,-15.49,0,*6A
1484388079.79,29595,6.44,71134.5,-14.73,-15.63,-15.49,0,*6B
1484388081.03,29596,6.44,71132.0,-14.75,-15.63,-15.49,0,*6E
1484388082.29,29597,6.44,71130.0,-14.75,-15.63,-15.57,0,*60
1484388083.5,29598,6.5,71134.8,-14.73,-15.63,-15.63,0,*6E
1484388084.74,29599,6.5,71144.5,-14.73,-15.63,-15.57,0,*68
1484388085.98,29600,6.5,71136.5,-14.75,-15.63,-15.49,0,*62
1484388087.22,29601,6.5,71140.8,-14.73,-15.63,-15.57,0,*6A
1484388088.49,29602,6.5,71140.3,-14.75,-15.57,-15.49,0,*67
1484388089.7,29603,6.5,71134.0,-14.73,-15.75,-15.67,0,*6C
1484388090.91,29604,6.5,71138.3,-14.73,-15.75,-15.67,0,*6B
1484388092.12,29605,6.44,71146.8,-14.73,-15.71,-15.63,0,*6A
1484388093.36,29606,6.5,71148.0,-14.73,-15.89,-15.67,0,*6A
1484388094.6,29607,6.44,71138.8,-14.73,-15.89,-15.75,0,*68
1484388095.85,29608,6.5,71148.5,-14.73,-15.89,-15.75,0,*67
1484388097.12,29609,6.44,71146.5,-14.73,-15.89,-15.81,0,*6D
1484388098.33,29610,6.44,71144.8,-14.73,-15.95,-15.67,0,*60
1484388099.56,29611,6.5,71146.3,-14.73,-15.81,-15.67,0,*64
1484388100.79,29612,6.44,71146.8,-14.73,-15.81,-15.67,0,*67
1484388102.06,29613,6.5,71146.8,-14.71,-15.85,-15.71,0,*67
1484388103.29,29614,6.44,71148.8,-14.73,-15.89,-15.67,0,*69
1484388104.53,29615,6.44,71142.8,-14.73,-15.89,-15.67,0,*68
1484388105.76,29616,6.44,71142.8,-14.73,-15.81,-15.67,0,*63
1484388107.0,29617,6.44,71144.3,-14.71,-15.71,-15.63,0,*6B
1484388108.22,29618,6.5,71148.3,-14.73,-15.75,-15.75,0,*65
1484388109.45,29619,6.44,71152.5,-14.73,-15.81,-15.67,0,*6C
1484388110.66,29620,6.44,71152.0,-14.73,-15.75,-15.67,0,*6D
1484388111.92,29621,6.44,71150.8,-14.71,-15.71,-15.57,0,*69
1484388113.16,29622,6.5,71156.8,-14.73,-15.81,-15.67,0,*64
1484388114.39,29623,6.5,71158.8,-14.71,-15.63,-15.63,0,*6F
1484388115.63,29624,6.5,71158.3,-14.71,-15.75,-15.63,0,*6F
1484388116.84,29625,6.44,71158.8,-14.73,-15.75,-15.67,0,*68
1484388118.09,29626,6.44,71156.0,-14.71,-15.75,-15.71,0,*6E
1484388119.33,29627,6.5,71162.8,-14.73,-15.89,-15.75,0,*6A
1484388120.59,29628,6.44,71152.5,-14.73,-15.81,-15.81,0,*66
1484388121.83,29629,6.44,71152.5,-14.71,-15.75,-15.63,0,*62
1484388123.05,29630,6.5,71150.8,-14.73,-15.75,-15.63,0,*68
1484388124.26,29631,6.5,71156.3,-14.73,-15.67,-15.63,0,*6A
1484388125.47,29632,6.5,71152.8,-14.73,-15.75,-15.67,0,*6E
1484388126.71,29633,6.44,71146.5,-14.71,-15.75,-15.63,0,*69
1484388127.96,29634,6.44,71152.0,-14.73,-15.89,-15.75,0,*68
1484388129.17,29635,6.5,71148.0,-14.73,-15.95,-15.67,0,*67
1484388130.38,29636,6.5,71148.8,-14.73,-15.95,-15.75,0,*67
1484388131.62,29637,6.5,71152.0,-14.73,-15.89,-15.67,0,*68
1484388132.83,29638,6.5,71148.8,-14.69,-15.75,-15.63,0,*6B
1484388134.07,29639,6.44,71148.5,-14.71,-15.75,-15.71,0,*60
1484388135.31,29640,6.5,71152.0,-14.71,-15.75,-15.71,0,*6E
1484388136.58,29641,6.44,71152.0,-14.71,-15.89,-15.71,0,*6C
1484388137.84,29642,6.44,71150.8,-14.71,-15.99,-15.85,0,*65
1484388139.08,29643,6.5,71150.0,-14.73,-16.17,-15.95,0,*62
1484388140.33,29644,6.5,71148.0,-14.73,-16.09,-15.95,0,*6A
1484388141.59,29645,6.44,71148.0,-14.71,-15.89,-15.75,0,*6C
1484388142.83,29646,6.5,71154.0,-14.73,-15.81,-15.75,0,*65
1484388144.06,29647,6.5,71146.0,-14.73,-15.81,-15.67,0,*67
1484388145.3,29648,6.44,71144.5,-14.71,-15.75,-15.63,0,*65
1484388146.54,29649,6.5,71144.8,-14.71,-15.75,-15.63,0,*64
1484388147.78,29650,6.5,71146.3,-14.73,-15.89,-15.67,0,*69
1484388149.02,29651,6.5,71148.5,-14.73,-15.89,-15.75,0,*6B
1484388150.27,29652,6.5,71148.5,-14.73,-15.95,-15.81,0,*6E
1484388151.51,29653,6.5,71152.8,-14.73,-15.89,-15.75,0,*69
1484388152.77,29654,6.5,71152.5,-14.71,-15.89,-15.75,0,*6C
1484388154.01,29655,6.44,71144.0,-14.73,-16.03,-15.89,0,*6D
1484388155.26,29656,6.5,71150.5,-14.73,-15.95,-15.81,0,*6A
1484388156.46,29657,6.5,71148.5,-14.73,-15.95,-15.67,0,*63
1484388157.7,29658,6.5,71146.8,-14.73,-15.89,-15.67,0,*61
1484388158.97,29659,6.5,71148.5,-14.71,-15.85,-15.75,0,*6D
1484388160.23,29660,6.5,71152.0,-14.71,-15.85,-15.63,0,*60
1484388161.46,29661,6.44,71144.8,-14.73,-15.81,-15.67,0,*63
1484388162.68,29662,6.5,71144.0,-14.73,-15.75,-15.63,0,*6F
1484388163.92,29663,6.5,71148.3,-14.73,-15.67,-15.57,0,*6A
1484388165.13,29664,6.5,71146.5,-14.73,-15.75,-15.63,0,*69
1484388166.37,29665,6.44,71148.8,-14.75,-15.67,-15.63,0,*6D
1484388167.6,29666,6.5,71150.5,-14.75,-15.67,-15.63,0,*6E
1484388168.84,29667,6.44,71144.8,-14.73,-15.67,-15.57,0,*6E
1484388170.05,29668,6.5,71146.8,-14.73,-15.67,-15.63,0,*66
1484388171.32,29669,6.5,71150.3,-14.71,-15.53,-15.43,0,*60
1484388172.58,29670,6.44,71150.0,-14.73,-15.57,-15.43,0,*6E
1484388173.8,29671,6.44,71140.3,-14.73,-15.63,-15.49,0,*62
1484388175.07,29672,6.5,71146.5,-14.71,-15.53,-15.39,0,*67
1484388176.33,29673,6.5,71140.8,-14.69,-15.43,-15.43,0,*63
1484388177.62,29674,6.5,71136.8,-14.71,-15.57,-15.43,0,*68
1484388178.86,29675,6.5,71138.8,-14.69,-15.57,-15.53,0,*61
1484388180.1,29676,6.44,71142.8,-14.69,-15.53,-15.57,0,*62
1484388181.34,29677,6.5,71144.5,-14.69,-15.57,-15.53,0,*63
1484388182.6,29678,6.44,71132.3,-14.69,-15.57,-15.39,0,*60
1484388183.87,29679,6.5,71138.8,-14.71,-15.53,-15.43,0,*61
1484388185.13,29680,6.5,71140.0,-14.71,-15.57,-15.53,0,*62
1484388186.39,29681,6.5,71144.5,-14.69,-15.57,-15.57,0,*6E
1484388187.66,29682,6.44,71146.8,-14.71,-15.71,-15.57,0,*60
1484388188.86,29683,6.5,71148.8,-14.69,-15.63,-15.63,0,*6C
1484388190.1,29684,6.44,71144.3,-14.69,-15.85,-15.75,0,*64
1484388191.39,29685,6.44,71146.5,-14.71,-15.89,-15.85,0,*6F
1484388192.63,29686,6.44,71138.0,-14.69,-16.03,-15.85,0,*64
1484388193.9,29687,6.44,71142.8,-14.69,-16.13,-15.85,0,*64
1484388195.16,29688,6.44,71142.3,-14.71,-16.03,-15.85,0,*63
1484388196.4,29689,6.5,71142.3,-14.71,-16.03,-15.75,0,*6D
1484388197.61,29690,6.44,71142.8,-14.69,-16.03,-15.75,0,*6C
1484388198.85,29691,6.44,71140.3,-14.69,-16.03,-15.85,0,*62
1484388200.06,29692,6.5,71148.8,-14.69,-16.03,-15.75,0,*6E
1484388201.32,29693,6.44,71150.0,-14.71,-16.17,-15.99,0,*61
1484388202.59,29694,6.44,71142.5,-14.71,-16.17,-15.99,0,*66
1484388203.85,29695,6.5,71144.0,-14.71,-16.17,-15.99,0,*67
1484388205.08,29696,6.5,71146.0,-14.69,-16.17,-15.99,0,*6D
1484388206.38,29697,6.44,71146.3,-14.71,-16.13,-15.89,0,*60
1484388207.67,29698,6.44,71142.5,-14.71,-16.13,-15.89,0,*6F
1484388208.9,29699,6.5,71142.0,-14.69,-16.03,-15.85,0,*6A
1484388210.17,29700,6.44,71140.8,-14.71,-15.89,-15.75,0,*6C
1484388211.46,29701,6.44,71142.8,-14.71,-15.89,-15.85,0,*62
1484388212.72,29702,6.44,71146.5,-14.71,-15.99,-15.85,0,*60
1484388213.95,29703,6.44,71144.3,-14.71,-15.99,-15.71,0,*6A
1484388215.18,29704,6.44,71134.5,-14.69,-15.99,-15.85,0,*6F
1484388216.44,29705,6.44,71132.8,-14.71,-16.03,-15.89,0,*6B
1484388217.68,29706,6.44,71140.3,-14.69,-16.03,-15.85,0,*6D
1484388218.92,29707,6.44,71146.3,-14.71,-15.75,-15.63,0,*6F
1484388220.18,29708,6.44,71148.5,-14.71,-15.85,-15.63,0,*6F
1484388221.44,29709,6.5,71158.0,-14.71,-15.75,-15.57,0,*66
1484388222.69,29710,6.5,71150.5,-14.71,-15.63,-15.53,0,*6D
1484388223.9,29711,6.44,71150.0,-14.73,-15.67,-15.63,0,*69
1484388225.11,29712,6.44,71150.8,-14.73,-15.67,-15.63,0,*6A
1484388226.35,29713,6.44,71146.8,-14.71,-15.75,-15.71,0,*69
1484388227.59,29714,6.44,71150.5,-14.71,-15.75,-15.71,0,*6E
1484388228.86,29715,6.44,71146.8,-14.71,-15.85,-15.63,0,*63
1484388230.12,29716,6.44,71156.5,-14.71,-15.85,-15.63,0,*60
1484388231.36,29717,6.5,71148.8,-14.71,-15.75,-15.71,0,*6D
1484388232.59,29718,6.5,71156.3,-14.71,-15.71,-15.63,0,*65
1484388233.83,29719,6.44,71148.5,-14.71,-15.63,-15.63,0,*67
1484388235.09,29720,6.5,71154.5,-14.71,-15.63,-15.57,0,*6A
1484388236.35,29721,6.5,71156.3,-14.71,-15.63,-15.57,0,*6B
1484388237.62,29722,6.44,71154.8,-14.71,-15.63,-15.57,0,*68
1484388238.86,29723,6.5,71148.3,-14.71,-15.63,-15.53,0,*6D
1484388240.09,29724,6.44,71148.0,-14.71,-15.71,-15.63,0,*6A
1484388241.33,29725,6.44,71146.8,-14.71,-15.71,-15.63,0,*6B
1484388242.57,29726,6.44,71152.0,-14.71,-15.63,-15.63,0,*6B
1484388243.78,29727,6.44,71150.3,-14.69,-15.71,-15.63,0,*60
1484388244.99,29728,6.44,71154.5,-14.69,-15.71,-15.63,0,*6F
1484388246.23,29729,6.44,71152.5,-14.71,-15.63,-15.53,0,*67
1484388247.47,29730,6.44,71154.5,-14.71,-15.63,-15.53,0,*6F
1484388248.71,29731,6.44,71152.5,-14.69,-15.63,-15.57,0,*63
1484388249.94,29732,6.5,71156.5,-14.69,-15.63,-15.57,0,*60
1484388251.21,29733,6.44,71154.3,-14.71,-15.71,-15.57,0,*6B
1484388252.45,29734,6.5,71152.5,-14.71,-15.63,-15.53,0,*6B
1484388253.71,29735,6.44,71162.3,-14.71,-15.63,-15.57,0,*6E
1484388254.97,29736,6.44,71152.5,-14.71,-15.71,-15.57,0,*6E
1484388256.21,29737,6.44,71154.3,-14.71,-15.75,-15.75,0,*6B
1484388257.48,29738,6.5,71156.3,-14.71,-15.85,-15.71,0,*6F
1484388258.74,29739,6.44,71152.8,-14.71,-15.85,-15.63,0,*6D
1484388260.01,29740,6.44,71152.5,-14.71,-15.85,-15.71,0,*60
1484388261.24,29741,6.44,71156.8,-14.69,-15.85,-15.71,0,*68
1484388262.51,29742,6.44,71162.0,-14.71,-15.85,-15.71,0,*62
1484388263.77,29743,6.5,71162.8,-14.71,-15.85,-15.71,0,*63
1484388265.01,29744,6.44,71158.3,-14.69,-15.89,-15.71,0,*61
1484388266.25,29745,6.44,71164.3,-14.71,-15.75,-15.63,0,*69
1484388267.49,29746,6.5,71162.5,-14.71,-15.63,-15.63,0,*6D
1484388268.73,29747,6.5,71156.3,-14.71,-15.63,-15.53,0,*6F
1484388270.01,29748,6.5,71156.8,-14.71,-15.57,-15.57,0,*63
1484388271.28,29749,6.5,71162.8,-14.71,-15.63,-15.57,0,*65
1484388272.51,29750,6.44,71156.0,-14.69,-15.63,-15.57,0,*64
1484388273.76,29751,6.5,71158.0,-14.71,-15.63,-15.53,0,*68
1484388275.02,29752,6.5,71154.5,-14.71,-15.71,-15.57,0,*6C
1484388276.27,29753,6.44,71146.5,-14.71,-15.99,-15.85,0,*64
1484388277.53,29754,6.5,71146.3,-14.71,-15.99,-15.85,0,*63
1484388278.8,29755,6.44,71144.5,-14.71,-15.89,-15.75,0,*6C
1484388280.06,29756,6.5,71158.5,-14.71,-15.85,-15.71,0,*67
1484388281.27,29757,6.44,71144.3,-14.69,-15.71,-15.63,0,*67
1484388282.51,29758,6.44,71140.3,-14.71,-15.75,-15.63,0,*65
1484388283.75,29759,6.44,71140.8,-14.71,-15.75,-15.63,0,*64
1484388285.01,29760,6.44,71150.3,-14.71,-15.85,-15.71,0,*62
1484388286.28,29761,6.44,71148.3,-14.71,-15.89,-15.75,0,*6B
1484388287.52,29762,6.44,71146.5,-14.71,-15.75,-15.63,0,*6C
1484388288.75,29763,6.44,71152.8,-14.71,-15.99,-15.71,0,*6C
1484388289.98,29764,6.5,71154.8,-14.69,-15.99,-15.85,0,*69
1484388291.22,29765,6.44,71140.8,-14.71,-16.03,-15.99,0,*6C
1484388292.48,29766,6.5,71140.8,-14.71,-16.17,-15.99,0,*6A
1484388293.74,29767,6.44,71154.5,-14.71,-16.17,-16.03,0,*6B
1484388295.0,29768,6.44,71136.8,-14.71,-16.17,-15.99,0,*64
1484388296.24,29769,6.44,71140.3,-14.73,-16.23,-16.03,0,*60
1484388297.5,29770,6.5,71146.0,-14.71,-16.17,-15.99,0,*6D
1484388298.79,29771,6.44,71138.5,-14.71,-16.13,-15.89,0,*69
1484388300.03,29772,6.44,71134.3,-14.71,-15.99,-15.75,0,*68
1484388301.28,29773,6.44,71134.8,-14.71,-15.99,-15.85,0,*66
1484388302.52,29774,6.44,71142.5,-14.71,-16.03,-15.99,0,*6C
1484388303.81,29775,6.44,71138.5,-14.71,-15.89,-15.85,0,*61
1484388305.05,29776,6.44,71128.3,-14.73,-16.09,-16.03,0,*66
1484388306.32,29777,6.5,71144.0,-14.73,-16.23,-16.09,0,*65
1484388307.58,29778,6.5,71134.5,-14.73,-16.23,-16.09,0,*6A
1484388308.83,29779,6.44,71138.8,-14.73,-16.37,-16.17,0,*61
1484388310.07,29780,6.44,71142.0,-14.73,-16.37,-16.09,0,*68
1484388311.34,29781,6.44,71142.3,-14.73,-16.31,-16.09,0,*6F
1484388312.58,29782,6.5,71144.5,-14.73,-16.37,-16.17,0,*65
1484388313.82,29783,6.5,71146.0,-14.73,-16.23,-16.03,0,*64
1484388315.06,29784,6.44,71142.3,-14.73,-16.09,-15.95,0,*67
1484388316.3,29785,6.44,71138.8,-14.71,-15.99,-15.71,0,*64
1484388317.5,29786,6.5,71144.3,-14.73,-16.03,-15.67,0,*62
1484388318.71,29787,6.5,71140.8,-14.73,-15.95,-15.67,0,*6F
1484388319.93,29788,6.44,71142.3,-14.73,-15.95,-15.75,0,*63
1484388321.17,29789,6.44,71146.8,-14.71,-15.75,-15.63,0,*69
1484388322.41,29790,6.44,71146.5,-14.71,-15.71,-15.63,0,*65
1484388323.64,29791,6.44,71148.8,-14.71,-15.71,-15.63,0,*64
1484388324.88,29792,6.44,71148.3,-14.71,-15.63,-15.53,0,*67
1484388326.1,29793,6.44,71142.0,-14.69,-15.71,-15.53,0,*6C
1484388327.34,29794,6.5,71148.0,-14.71,-15.63,-15.53,0,*61
1484388328.6,29795,6.5,71148.5,-14.71,-15.63,-15.57,0,*64
1484388329.84,29796,6.44,71144.3,-14.73,-15.67,-15.57,0,*61
1484388331.06,29797,6.44,71146.0,-14.73,-15.75,-15.63,0,*64
1484388332.29,29798,6.5,71150.3,-14.73,-15.81,-15.63,0,*60
1484388333.56,29799,6.44,71146.0,-14.71,-15.85,-15.71,0,*64
1484388334.77,29800,6.44,71150.8,-14.69,-15.75,-15.63,0,*6E
1484388336.01,29801,6.5,71146.8,-14.71,-15.75,-15.63,0,*66
1484388337.25,29802,6.5,71150.5,-14.69,-15.85,-15.63,0,*63
1484388338.46,29803,6.44,71156.5,-14.69,-15.99,-15.71,0,*6C
1484388339.72,29804,6.44,71156.3,-14.71,-15.89,-15.71,0,*63
1484388340.99,29805,6.5,71148.3,-14.71,-15.89,-15.75,0,*66
1484388342.23,29806,6.44,71146.5,-14.69,-15.85,-15.75,0,*60
1484388343.46,29807,6.44,71148.0,-14.71,-15.99,-15.71,0,*61
1484388344.72,29808,6.5,71148.5,-14.71,-15.85,-15.71,0,*63
1484388345.99,29809,6.5,71144.0,-14.69,-16.13,-15.89,0,*60
1484388347.22,29810,6.44,71140.3,-14.69,-16.27,-15.99,0,*6E
1484388348.46,29811,6.44,71138.3,-14.69,-16.17,-15.99,0,*6C
1484388349.72,29812,6.44,71140.8,-14.71,-16.17,-16.03,0,*66
1484388350.96,29813,6.5,71146.8,-14.69,-16.03,-15.85,0,*66
1484388352.22,29814,6.44,71144.5,-14.71,-15.89,-15.75,0,*66
1484388353.46,29815,6.44,71146.0,-14.71,-15.99,-15.75,0,*66
1484388354.69,29816,6.44,71144.5,-14.69,-15.99,-15.85,0,*63
1484388355.92,29817,6.44,71154.3,-14.69,-16.03,-15.85,0,*62
1484388357.19,29818,6.44,71148.0,-14.71,-15.89,-15.75,0,*6A
1484388358.45,29819,6.5,71142.5,-14.71,-15.89,-15.71,0,*6F
1484388359.67,29820,6.44,71142.3,-14.69,-15.75,-15.63,0,*6C
1484388360.91,29821,6.5,71154.5,-14.71,-15.71,-15.53,0,*63
1484388362.15,29822,6.5,71158.0,-14.69,-15.75,-15.57,0,*69
1484388363.38,29823,6.5,71158.5,-14.71,-15.63,-15.63,0,*61
1484388364.62,29824,6.44,71158.5,-14.69,-15.89,-15.63,0,*6B
1484388365.83,29825,6.44,71156.8,-14.69,-15.99,-15.75,0,*6C
1484388367.06,29826,6.44,71160.3,-14.69,-15.99,-15.85,0,*60
1484388368.3,29827,6.44,71152.8,-14.69,-16.03,-15.85,0,*61
1484388369.5,29828,6.5,71156.0,-14.69,-15.99,-15.75,0,*61
1484388370.74,29829,6.44,71154.3,-14.71,-15.99,-15.75,0,*69
1484388371.97,29830,6.5,71152.8,-14.71,-15.75,-15.63,0,*64
1484388373.19,29831,6.44,71162.5,-14.69,-15.63,-15.53,0,*68
1484388374.43,29832,6.44,71158.5,-14.69,-15.63,-15.57,0,*6F
1484388375.67,29833,6.44,71160.8,-14.67,-15.67,-15.53,0,*60
1484388376.88,29834,6.44,71158.3,-14.69,-15.63,-15.53,0,*6D
1484388378.14,29835,6.44,71160.3,-14.67,-15.67,-15.57,0,*62
1484388379.38,29836,6.44,71170.8,-14.69,-15.71,-15.57,0,*68
1484388380.62,29837,6.44,71164.0,-14.69,-15.75,-15.57,0,*6D
1484388381.89,29838,6.44,71160.3,-14.67,-16.09,-15.95,0,*6A
1484388383.16,29839,6.44,71168.3,-14.69,-16.13,-16.09,0,*68
1484388384.4,29840,6.44,71172.0,-14.69,-16.17,-15.99,0,*68
1484388385.63,29841,6.44,71170.3,-14.69,-16.27,-15.99,0,*6A
1484388386.92,29842,6.44,71164.3,-14.71,-16.27,-16.13,0,*61
1484388388.17,29843,6.44,71156.5,-14.69,-16.31,-16.13,0,*6E
1484388389.43,29844,6.44,71156.0,-14.71,-16.31,-16.03,0,*61
1484388390.67,29845,6.44,71158.5,-14.69,-16.17,-16.03,0,*6D
1484388391.9,29846,6.5,71160.3,-14.69,-16.03,-15.85,0,*66
1484388393.14,29847,6.5,71166.0,-14.69,-16.03,-15.85,0,*67
1484388394.35,29848,6.44,71164.8,-14.69,-16.03,-15.75,0,*67
1484388395.56,29849,6.5,71164.3,-14.69,-15.99,-15.75,0,*66
1484388396.77,29850,6.5,71168.0,-14.69,-15.99,-15.71,0,*6A
1484388398.03,29851,6.44,71170.0,-14.67,-15.95,-15.81,0,*66
1484388399.27,29852,6.5,71176.5,-14.69,-15.89,-15.71,0,*69
1484388400.53,29853,6.5,71174.3,-14.67,-15.71,-15.57,0,*65
1484388401.77,29854,6.44,71162.5,-14.69,-15.89,-15.75,0,*6B
1484388403.04,29855,6.44,71170.8,-14.69,-16.13,-15.89,0,*69
1484388404.31,29856,6.44,71166.3,-14.69,-16.13,-15.85,0,*66
1484388405.51,29857,6.44,71166.5,-14.69,-16.03,-16.03,0,*6B
1484388406.72,29858,6.44,71164.8,-14.69,-16.03,-15.99,0,*64
1484388407.96,29859,6.44,71168.3,-14.69,-16.13,-15.99,0,*64
1484388409.2,29860,6.44,71168.8,-14.71,-16.03,-15.75,0,*64
1484388410.49,29861,6.44,71160.3,-14.67,-15.85,-15.57,0,*6F
1484388411.72,29862,6.44,71162.3,-14.69,-15.99,-15.85,0,*60
1484388412.96,29863,6.44,71152.8,-14.69,-15.89,-15.75,0,*6F
1484388414.25,29864,6.5,71156.3,-14.67,-15.81,-15.57,0,*6E
1484388415.49,29865,6.44,71156.5,-14.71,-15.75,-15.63,0,*64
1484388416.72,29866,6.44,71164.3,-14.69,-15.71,-15.57,0,*6D
1484388417.93,29867,6.5,71166.5,-14.69,-15.63,-15.63,0,*68
1484388419.14,29868,6.44,71164.3,-14.69,-15.71,-15.63,0,*64
1484388420.38,29869,6.44,71162.8,-14.69,-15.85,-15.63,0,*6E
1484388421.62,29870,6.44,71166.3,-14.69,-15.89,-15.71,0,*69
1484388422.88,29871,6.5,71170.3,-14.67,-15.81,-15.71,0,*6E
1484388424.14,29872,6.44,71172.3,-14.67,-15.71,-15.57,0,*66
1484388425.38,29873,6.44,71174.0,-14.67,-15.67,-15.53,0,*64
1484388426.65,29874,6.44,71170.0,-14.63,-15.85,-15.53,0,*6B
1484388427.91,29875,6.44,71166.3,-14.67,-15.57,-15.53,0,*61
1484388429.15,29876,6.44,71164.0,-14.67,-15.67,-15.53,0,*61
1484388430.39,29877,6.44,71166.8,-14.67,-15.67,-15.53,0,*60
1484388431.66,29878,6.5,71172.8,-14.71,-15.75,-15.57,0,*6F
1484388432.9,29879,6.44,71164.0,-14.69,-15.71,-15.57,0,*63
1484388434.13,29880,6.44,71170.3,-14.69,-15.71,-15.57,0,*65
1484388435.37,29881,6.44,71164.5,-14.69,-15.63,-15.57,0,*67
1484388436.63,29882,6.44,71172.3,-14.63,-15.57,-15.49,0,*66
1484388437.92,29883,6.44,71172.3,-14.67,-15.57,-15.39,0,*64
1484388439.21,29884,6.44,71164.0,-14.67,-15.57,-15.39,0,*63
1484388440.48,29885,6.44,71170.5,-14.67,-15.57,-15.53,0,*6E
1484388441.71,29886,6.44,71166.3,-14.63,-15.67,-15.53,0,*6A
1484388442.97,29887,6.44,71166.0,-14.67,-15.81,-15.67,0,*60
1484388444.21,29888,6.44,71166.5,-14.63,-15.95,-15.71,0,*69
1484388445.46,29889,6.5,71170.5,-14.67,-15.99,-15.81,0,*6F
1484388446.76,29890,6.44,71182.3,-14.67,-16.13,-15.85,0,*62
1484388448.02,29891,6.5,71176.8,-14.67,-16.23,-15.95,0,*61
1484388449.28,29892,6.44,71178.5,-14.63,-16.23,-15.95,0,*66
1484388450.57,29893,6.44,71178.5,-14.67,-16.13,-15.85,0,*61
1484388451.84,29894,6.44,71174.8,-14.67,-16.09,-15.71,0,*66
1484388453.14,29895,6.44,71178.8,-14.67,-16.09,-15.85,0,*6C
1484388454.43,29896,6.44,71176.3,-14.67,-16.13,-15.85,0,*64
1484388455.64,29897,6.44,71164.3,-14.69,-16.03,-15.71,0,*61
1484388456.9,29898,6.44,71168.5,-14.67,-15.81,-15.67,0,*6E
1484388458.16,29899,6.44,71174.8,-14.67,-15.71,-15.57,0,*63
1484388459.4,29900,6.44,71172.3,-14.67,-15.67,-15.53,0,*61
1484388460.67,29901,6.5,71172.5,-14.63,-15.57,-15.49,0,*6C
1484388461.91,29902,6.44,71172.0,-14.67,-15.67,-15.53,0,*63
1484388463.15,29903,6.44,71176.5,-14.67,-15.67,-15.53,0,*62
1484388464.4,29904,6.5,71174.0,-14.63,-15.81,-15.67,0,*6E
1484388465.66,29905,6.44,71168.3,-14.67,-15.81,-15.71,0,*6C
1484388466.89,29906,6.44,71172.8,-14.63,-15.95,-15.67,0,*69
1484388468.16,29907,6.5,71172.5,-14.67,-15.95,-15.81,0,*64
1484388469.41,29908,6.44,71176.0,-14.63,-15.99,-15.81,0,*63
1484388470.64,29909,6.44,71178.8,-14.63,-15.99,-15.71,0,*6D
1484388471.91,29910,6.44,71168.5,-14.67,-15.85,-15.71,0,*6C
1484388473.17,29911,6.5,71170.5,-14.67,-15.95,-15.57,0,*68
1484388474.4,29912,6.44,71172.5,-14.63,-15.95,-15.67,0,*6C
1484388475.63,29913,6.5,71178.5,-14.63,-15.95,-15.71,0,*6A
1484388476.89,29914,6.44,71174.5,-14.63,-15.99,-15.81,0,*6E
1484388478.12,29915,6.5,71170.8,-14.67,-15.99,-15.71,0,*64
1484388479.42,29916,6.44,71166.8,-14.67,-16.09,-15.81,0,*62
1484388480.65,29917,6.44,71174.8,-14.63,-15.95,-15.71,0,*6E
1484388481.95,29918,6.44,71168.8,-14.67,-16.09,-15.81,0,*6C
1484388483.21,29919,6.44,71170.8,-14.67,-15.99,-15.85,0,*63
1484388484.47,29920,6.44,71170.3,-14.67,-16.13,-15.95,0,*69
1484388485.76,29921,6.5,71172.8,-14.63,-16.27,-16.09,0,*6D
1484388487.05,29922,6.44,71174.5,-14.63,-16.27,-16.09,0,*6E
1484388488.34,29923,6.44,71182.5,-14.67,-16.27,-16.09,0,*6B
1484388489.58,29924,6.44,71178.8,-14.67,-16.37,-15.99,0,*67
1484388490.86,29925,6.44,71164.8,-14.63,-16.23,-16.09,0,*6D
1484388492.12,29926,6.44,71162.5,-14.63,-16.27,-15.99,0,*60
1484388493.38,29927,6.44,71168.5,-14.67,-16.27,-15.99,0,*65
1484388494.6,29928,6.44,71164.8,-14.67,-15.99,-15.67,0,*6D
1484388495.89,29929,6.44,71166.3,-14.63,-15.81,-15.57,0,*62
1484388497.18,29930,6.44,71162.5,-14.63,-15.85,-15.81,0,*65
1484388498.46,29931,6.44,71172.0,-14.63,-16.13,-15.85,0,*6C
1484388499.7,29932,6.44,71164.0,-14.67,-15.99,-15.71,0,*61
1484388500.95,29933,6.44,71168.0,-14.63,-15.99,-15.81,0,*6B
1484388502.18,29934,6.44,71166.8,-14.67,-15.99,-15.71,0,*67